Location: Boston
(42.3580°N, 71.0600°W)
Time: 00:25:09
(UTC-05:00)

Tiangong 2 - Pass Details

Date: 13 October 2017
Orbit: 386 x 390 km, 42.8° (Epoch: 15 December)

Event Time Altitude Azimuth Distance (km) Brightness Sun altitude
Exits shadow 04:19:34 14° 87° (E) 1,223 4.4 -29.2°
Drops below altitude 10° 04:20:05 10° 84° (E) 1,424 4.8 -29.1°
Sets 04:22:12 0° 79° (E) 2,283 6.2 -28.8°
